This is the latest recevied weather packets stored in our database for station/object KC1OEK-13. If no packets are shown the sender has not sent any weather packets the latest 10 day(s).
| Time | Temp. | Humidity | Pressure | Rain* | Wind** | Luminosity | Snow |
|---|---|---|---|---|---|---|---|
| 1788054631 | 14.44° C | 93% | 1024.9 hPa | 0 mm | - | 0 W/m² | - |
| 1788054326 | 14.44° C | 92% | 1024.8 hPa | 0 mm | - | 0 W/m² | - |
| 1788054022 | 15° C | 92% | 1024.7 hPa | 0 mm | - | 0 W/m² | - |
| 1788053717 | 14.44° C | 92% | 1024.7 hPa | 0 mm | - | 0 W/m² | - |
| 1788053413 | 14.44° C | 92% | 1024.6 hPa | 0 mm | - | 0 W/m² | - |
| 1788053107 | 14.44° C | 91% | 1024.5 hPa | 0 mm | - | 0 W/m² | - |
| 1788052803 | 15° C | 91% | 1024.6 hPa | 0 mm | - | 0 W/m² | - |
| 1788052498 | 14.44° C | 91% | 1024.5 hPa | 0 mm | - | 0 W/m² | - |
| 1788052194 | 15° C | 90% | 1024.3 hPa | 0 mm | - | 0 W/m² | - |
| 1788051888 | 15° C | 90% | 1024.4 hPa | 0 mm | - | 0 W/m² | - |
| 1788051583 | 15° C | 90% | 1024.4 hPa | 0 mm | - | 0 W/m² | - |
| 1788051281 | 15° C | 89% | 1024.3 hPa | 0 mm | - | 0 W/m² | - |
| 1788050980 | 15.56° C | 89% | 1024.3 hPa | 0 mm | - | 0 W/m² | - |
| 1788050676 | 15.56° C | 88% | 1024.3 hPa | 0 mm | - | 0 W/m² | - |
| 1788050374 | 15.56° C | 88% | 1024.3 hPa | 0 mm | - | 0 W/m² | - |
| 1788050068 | 15.56° C | 87% | 1024.1 hPa | 0 mm | - | 0 W/m² | - |
| 1788049766 | 15.56° C | 87% | 1024.2 hPa | 0 mm | - | 0 W/m² | - |
| 1788049461 | 16.11° C | 86% | 1024.2 hPa | 0 mm | - | 0 W/m² | - |
| 1788049157 | 16.11° C | 87% | 1024.3 hPa | 0 mm | - | 0 W/m² | - |
| 1788048852 | 16.11° C | 86% | 1024.1 hPa | 0 mm | - | 0 W/m² | - |
| 1788048547 | 16.11° C | 85% | 1024.1 hPa | 0 mm | - | 0 W/m² | - |
| 1788048245 | 16.67° C | 84% | 1024.2 hPa | 0 mm | - | 0 W/m² | - |
| 1788047942 | 16.67° C | 83% | 1024.2 hPa | 0 mm | - | 0 W/m² | - |
| 1788047637 | 16.67° C | 81% | 1024.1 hPa | 0 mm | - | 0 W/m² | - |
| 1788047336 | 17.22° C | 81% | 1024.2 hPa | 0 mm | - | 0 W/m² | - |
* Rain latest hour (hover to see other rain measurements)
** Current wind speed in m/s (hover to see current wind gust speed)